Language: 


Des rapports , des résumés tant et plus, au choix de chacun....


Données statistiques de la station
Quotidien Rapport Octobre 16, 2017 Unités:  Métrique    Anglais   les deux
« Précédent Jour
Suivant Jour »
Quotidien Hebdomadaire Mensuel Annuel Actuel
  Haut: Bas: Moyen:
Température: 26.4 °C 0.0 °C 19.5 °C
Pt de rosée: 18.0 °C 14.0 °C 15.8 °C
Humidité: 96 % 0 % 80 %
Vitesse du vent: 21.9 km/h 0.0 km/h 5.2 km/h
Rafales: 28.5 km/h - -
Vent:- - SSW
Pression: 1020.9 hPa 0.0 hPa -
Précipitation: 0.0 mm    
Historical Graphs
 
 
Données statistiques pour Octobre 16, 2017
Heure Température Point de rosée Pression Vent Vitesse du vent Refales Humidité Pluie (taux horaire)
00:02 17.0 °C 15.0 °C 1018.8 hPa Calm     90 % 0.0 mm
00:07 17.0 °C 15.0 °C 1018.8 hPa Calm     90 % 0.0 mm
00:12 17.0 °C 15.0 °C 1018.8 hPa Calm     90 % 0.0 mm
00:17 17.0 °C 16.0 °C 1018.8 hPa Calm     91 % 0.0 mm
00:22 16.9 °C 16.0 °C 1018.8 hPa Calm   2.1 km/h 91 % 0.0 mm
00:27 16.9 °C 16.0 °C 1018.8 hPa Calm   6.4 km/h 91 % 0.0 mm
00:32 16.9 °C 16.0 °C 1018.8 hPa Calm   6.4 km/h 91 % 0.0 mm
00:37 16.9 °C 16.0 °C 1018.8 hPa Calm   4.3 km/h 91 % 0.0 mm
00:39 16.9 °C 16.0 °C 1018.8 hPa Calm   4.3 km/h 91 % 0.0 mm
00:44 16.8 °C 15.0 °C 1018.8 hPa Calm   4.3 km/h 91 % 0.0 mm
00:49 16.7 °C 15.0 °C 1018.8 hPa Calm   1.8 km/h 91 % 0.0 mm
00:54 16.7 °C 15.0 °C 1018.8 hPa Calm   1.8 km/h 91 % 0.0 mm
00:59 16.6 °C 15.0 °C 1018.8 hPa Calm     91 % 0.0 mm
01:05 16.6 °C 15.0 °C 1018.8 hPa Calm     91 % 0.0 mm
01:10 16.7 °C 15.0 °C 1018.8 hPa SSW 4.3 km/h 4.3 km/h 91 % 0.0 mm
01:15 16.7 °C 15.0 °C 1018.8 hPa Calm   4.3 km/h 91 % 0.0 mm
01:20 16.8 °C 16.0 °C 1018.2 hPa Calm   9.7 km/h 93 % 0.0 mm
01:25 16.8 °C 16.0 °C 1018.2 hPa South 6.1 km/h 9.7 km/h 93 % 0.0 mm
01:30 17.0 °C 16.0 °C 1018.8 hPa SSE 4.7 km/h 14.0 km/h 93 % 0.0 mm
01:35 17.1 °C 16.0 °C 1018.8 hPa South 3.2 km/h 14.0 km/h 93 % 0.0 mm
01:40 17.2 °C 16.0 °C 1018.8 hPa Calm   10.8 km/h 92 % 0.0 mm
01:45 17.2 °C 16.0 °C 1018.2 hPa Calm   6.9 km/h 92 % 0.0 mm
01:50 17.2 °C 16.0 °C 1018.2 hPa Calm   6.1 km/h 92 % 0.0 mm
01:55 17.2 °C 16.0 °C 1018.2 hPa Calm   4.3 km/h 92 % 0.0 mm
02:00 17.2 °C 16.0 °C 1018.2 hPa Calm   4.7 km/h 92 % 0.0 mm
02:05 17.3 °C 16.0 °C 1018.2 hPa Calm   4.7 km/h 92 % 0.0 mm
02:10 17.4 °C 16.0 °C 1018.2 hPa Calm   5.8 km/h 92 % 0.0 mm
02:15 17.4 °C 16.0 °C 1018.8 hPa Calm   5.8 km/h 92 % 0.0 mm
02:20 17.5 °C 16.0 °C 1018.8 hPa SSE 4.7 km/h 4.7 km/h 92 % 0.0 mm
02:25 17.5 °C 16.0 °C 1018.8 hPa Calm   6.9 km/h 92 % 0.0 mm
02:30 17.6 °C 16.0 °C 1018.8 hPa Calm   6.9 km/h 92 % 0.0 mm
02:35 17.6 °C 16.0 °C 1018.8 hPa Calm     92 % 0.0 mm
02:40 17.6 °C 16.0 °C 1018.8 hPa Calm   5.8 km/h 92 % 0.0 mm
02:45 17.7 °C 16.0 °C 1018.8 hPa Calm   5.8 km/h 92 % 0.0 mm
02:50 17.7 °C 16.0 °C 1018.8 hPa South 4.7 km/h 6.1 km/h 92 % 0.0 mm
02:55 17.7 °C 16.0 °C 1018.8 hPa Calm   9.3 km/h 92 % 0.0 mm
03:02 0.0 °C 16.0 °C 0.0 hPa South 3.5 km/h 3.5 km/h 0 % 0.0 mm
03:07 17.6 °C 16.0 °C 1018.2 hPa Calm   8.7 km/h 92 % 0.0 mm
03:12 17.7 °C 16.0 °C 1018.2 hPa Calm   8.7 km/h 92 % 0.0 mm
03:17 17.8 °C 16.0 °C 1018.8 hPa Calm   9.3 km/h 92 % 0.0 mm
03:22 17.8 °C 16.0 °C 1018.8 hPa Calm   9.3 km/h 92 % 0.0 mm
03:27 17.8 °C 16.0 °C 1018.8 hPa Calm   6.1 km/h 92 % 0.0 mm
03:32 17.8 °C 16.0 °C 1018.8 hPa Calm   6.1 km/h 92 % 0.0 mm
03:37 17.8 °C 16.0 °C 1018.8 hPa Calm   6.1 km/h 92 % 0.0 mm
03:42 17.8 °C 16.0 °C 1018.8 hPa SW 3.5 km/h 7.6 km/h 92 % 0.0 mm
03:47 17.8 °C 16.0 °C 1018.8 hPa Calm   7.6 km/h 92 % 0.0 mm
03:52 17.8 °C 16.0 °C 1018.8 hPa Calm   6.9 km/h 92 % 0.0 mm
03:57 17.9 °C 17.0 °C 1018.8 hPa South 4.3 km/h 7.6 km/h 92 % 0.0 mm
04:02 17.9 °C 17.0 °C 1018.8 hPa South 7.9 km/h 7.9 km/h 92 % 0.0 mm
04:07 17.8 °C 16.0 °C 1018.8 hPa South 6.1 km/h 9.0 km/h 92 % 0.0 mm
04:11 17.8 °C 16.0 °C 1018.8 hPa SSE 5.0 km/h 9.0 km/h 92 % 0.0 mm
04:12 17.8 °C 16.0 °C 1018.8 hPa South 5.8 km/h 9.0 km/h 92 % 0.0 mm
04:17 17.8 °C 16.0 °C 1018.2 hPa South 6.4 km/h 8.7 km/h 92 % 0.0 mm
04:22 17.8 °C 16.0 °C 1018.2 hPa SW 1.8 km/h 10.1 km/h 92 % 0.0 mm
04:27 17.8 °C 16.0 °C 1018.2 hPa Calm   10.1 km/h 92 % 0.0 mm
04:32 17.7 °C 16.0 °C 1018.8 hPa SSE 4.3 km/h 7.6 km/h 92 % 0.0 mm
04:37 17.7 °C 16.0 °C 1018.8 hPa South 4.0 km/h 7.9 km/h 92 % 0.0 mm
04:42 17.7 °C 16.0 °C 1018.8 hPa SSW 1.8 km/h 7.9 km/h 92 % 0.0 mm
04:47 17.7 °C 16.0 °C 1018.8 hPa Calm   6.4 km/h 92 % 0.0 mm
04:52 17.6 °C 16.0 °C 1018.8 hPa Calm   6.1 km/h 92 % 0.0 mm
04:57 17.4 °C 16.0 °C 1018.8 hPa Calm   6.9 km/h 92 % 0.0 mm
05:02 17.3 °C 16.0 °C 1018.8 hPa Calm   6.9 km/h 92 % 0.0 mm
05:07 17.3 °C 16.0 °C 1018.8 hPa South 4.3 km/h 6.9 km/h 92 % 0.0 mm
05:12 17.2 °C 16.0 °C 1018.8 hPa Calm   10.1 km/h 92 % 0.0 mm
05:17 17.1 °C 16.0 °C 1018.8 hPa Calm   10.1 km/h 92 % 0.0 mm
05:22 16.9 °C 16.0 °C 1018.8 hPa Calm   5.8 km/h 92 % 0.0 mm
05:27 16.8 °C 15.0 °C 1018.8 hPa Calm   5.8 km/h 92 % 0.0 mm
05:32 16.7 °C 15.0 °C 1018.8 hPa Calm   5.8 km/h 92 % 0.0 mm
05:38 16.6 °C 15.0 °C 1018.8 hPa South 1.4 km/h 4.7 km/h 92 % 0.0 mm
05:39 16.5 °C 15.0 °C 1018.8 hPa SSW 7.2 km/h 7.2 km/h 92 % 0.0 mm
05:44 16.5 °C 15.0 °C 1018.8 hPa Calm   7.6 km/h 92 % 0.0 mm
05:49 16.4 °C 15.0 °C 1018.8 hPa SSE 4.0 km/h 7.6 km/h 92 % 0.0 mm
05:54 16.4 °C 15.0 °C 1018.8 hPa Calm   5.5 km/h 92 % 0.0 mm
05:59 16.4 °C 15.0 °C 1018.8 hPa SSW 5.5 km/h 8.7 km/h 93 % 0.0 mm
06:04 16.4 °C 15.0 °C 1018.8 hPa Calm   8.7 km/h 93 % 0.0 mm
06:09 16.4 °C 15.0 °C 1018.8 hPa Calm   5.5 km/h 93 % 0.0 mm
06:14 16.3 °C 15.0 °C 1018.8 hPa Calm   9.7 km/h 93 % 0.0 mm
06:19 16.3 °C 15.0 °C 1018.8 hPa Calm   9.7 km/h 93 % 0.0 mm
06:24 16.3 °C 15.0 °C 1018.8 hPa Calm   8.7 km/h 93 % 0.0 mm
06:30 16.1 °C 15.0 °C 1018.8 hPa Calm   1.8 km/h 93 % 0.0 mm
06:35 16.1 °C 15.0 °C 1018.2 hPa Calm     93 % 0.0 mm
06:40 16.0 °C 15.0 °C 1018.2 hPa Calm   4.0 km/h 93 % 0.0 mm
06:45 15.8 °C 15.0 °C 1018.2 hPa Calm   4.0 km/h 94 % 0.0 mm
06:50 15.8 °C 15.0 °C 1018.8 hPa Calm     94 % 0.0 mm
06:55 15.7 °C 15.0 °C 1018.8 hPa Calm   5.8 km/h 94 % 0.0 mm
07:00 15.7 °C 15.0 °C 1018.8 hPa Calm   5.8 km/h 94 % 0.0 mm
07:05 15.7 °C 15.0 °C 1018.8 hPa Calm   6.1 km/h 94 % 0.0 mm
07:10 15.8 °C 15.0 °C 1018.8 hPa Calm   9.3 km/h 95 % 0.0 mm
07:15 15.8 °C 15.0 °C 1018.2 hPa Calm   9.3 km/h 95 % 0.0 mm
07:20 15.8 °C 15.0 °C 1018.2 hPa Calm   5.8 km/h 95 % 0.0 mm
07:25 15.8 °C 15.0 °C 1018.2 hPa Calm   3.2 km/h 95 % 0.0 mm
07:26 15.8 °C 15.0 °C 1018.2 hPa Calm   3.2 km/h 95 % 0.0 mm
07:31 15.8 °C 15.0 °C 1018.2 hPa Calm   6.4 km/h 95 % 0.0 mm
07:36 15.8 °C 15.0 °C 1018.2 hPa Calm   6.4 km/h 95 % 0.0 mm
07:41 15.8 °C 15.0 °C 1018.2 hPa Calm   4.7 km/h 95 % 0.0 mm
07:46 15.7 °C 15.0 °C 1018.8 hPa Calm   6.4 km/h 95 % 0.0 mm
07:51 15.7 °C 15.0 °C 1018.8 hPa Calm   6.9 km/h 95 % 0.0 mm
07:53 15.7 °C 15.0 °C 1018.8 hPa Calm   6.9 km/h 95 % 0.0 mm
07:58 15.7 °C 15.0 °C 1018.8 hPa Calm   7.2 km/h 95 % 0.0 mm
08:03 15.7 °C 15.0 °C 1018.2 hPa Calm   7.2 km/h 95 % 0.0 mm
08:08 15.6 °C 15.0 °C 1018.2 hPa Calm   4.0 km/h 95 % 0.0 mm
08:13 15.6 °C 15.0 °C 1018.2 hPa South 4.0 km/h 4.0 km/h 96 % 0.0 mm
08:18 15.6 °C 15.0 °C 1018.8 hPa Calm   6.1 km/h 96 % 0.0 mm
08:23 15.5 °C 15.0 °C 1018.8 hPa SSW 1.4 km/h 6.1 km/h 96 % 0.0 mm
08:28 15.5 °C 15.0 °C 1018.8 hPa Calm   1.8 km/h 96 % 0.0 mm
08:33 15.5 °C 15.0 °C 1018.8 hPa Calm   5.8 km/h 96 % 0.0 mm
08:38 15.6 °C 15.0 °C 1018.8 hPa Calm   5.8 km/h 96 % 0.0 mm
08:43 15.6 °C 15.0 °C 1018.8 hPa Calm   5.5 km/h 96 % 0.0 mm
08:48 15.6 °C 15.0 °C 1018.2 hPa Calm   6.9 km/h 96 % 0.0 mm
08:53 15.7 °C 15.0 °C 1018.2 hPa SSE 5.0 km/h 6.9 km/h 96 % 0.0 mm
08:58 15.8 °C 15.0 °C 1018.2 hPa Calm   10.5 km/h 96 % 0.0 mm
09:03 15.9 °C 16.0 °C 1018.8 hPa South 3.2 km/h 10.5 km/h 96 % 0.0 mm
09:08 16.0 °C 16.0 °C 1018.8 hPa South 1.8 km/h 9.7 km/h 96 % 0.0 mm
09:13 16.1 °C 16.0 °C 1018.8 hPa SSE 4.3 km/h 6.1 km/h 96 % 0.0 mm
09:18 16.2 °C 16.0 °C 1018.8 hPa SSE 2.6 km/h 6.4 km/h 95 % 0.0 mm
09:23 16.3 °C 16.0 °C 1018.8 hPa SSE 4.3 km/h 9.7 km/h 95 % 0.0 mm
09:28 16.4 °C 16.0 °C 1018.8 hPa South 6.1 km/h 9.7 km/h 95 % 0.0 mm
09:33 16.4 °C 16.0 °C 1018.8 hPa South 6.4 km/h 11.9 km/h 95 % 0.0 mm
09:38 16.5 °C 16.0 °C 1018.8 hPa South 4.3 km/h 11.9 km/h 95 % 0.0 mm
09:43 16.5 °C 16.0 °C 1018.8 hPa SSE 6.4 km/h 10.1 km/h 94 % 0.0 mm
09:48 16.7 °C 16.0 °C 1018.8 hPa South 3.2 km/h 10.1 km/h 94 % 0.0 mm
09:53 17.0 °C 16.0 °C 1018.8 hPa SSW 5.0 km/h 9.0 km/h 94 % 0.0 mm
09:58 17.3 °C 16.0 °C 1018.8 hPa SSE 6.1 km/h 10.1 km/h 93 % 0.0 mm
10:04 17.5 °C 17.0 °C 1018.8 hPa South 5.8 km/h 10.1 km/h 93 % 0.0 mm
10:09 17.6 °C 16.0 °C 1018.8 hPa SSE 7.6 km/h 12.2 km/h 92 % 0.0 mm
10:14 17.9 °C 17.0 °C 1018.8 hPa Calm   12.2 km/h 92 % 0.0 mm
10:19 18.1 °C 16.0 °C 1018.8 hPa SSE 4.7 km/h 12.2 km/h 90 % 0.0 mm
10:24 18.3 °C 17.0 °C 1018.8 hPa South 7.2 km/h 12.2 km/h 90 % 0.0 mm
10:29 18.5 °C 17.0 °C 1018.8 hPa SSW 6.4 km/h 11.9 km/h 89 % 0.0 mm
10:34 18.6 °C 17.0 °C 1018.8 hPa SSE 5.8 km/h 10.8 km/h 89 % 0.0 mm
10:39 18.8 °C 17.0 °C 1018.8 hPa SSE 3.2 km/h 10.5 km/h 88 % 0.0 mm
10:44 19.0 °C 17.0 °C 1018.8 hPa SSE 12.6 km/h 15.1 km/h 87 % 0.0 mm
10:49 19.2 °C 17.0 °C 1018.8 hPa South 8.7 km/h 17.2 km/h 86 % 0.0 mm
10:54 19.3 °C 17.0 °C 1018.8 hPa South 5.5 km/h 17.2 km/h 85 % 0.0 mm
10:59 19.6 °C 17.0 °C 1018.8 hPa SSW 6.9 km/h 13.0 km/h 85 % 0.0 mm
11:04 19.8 °C 17.0 °C 1018.8 hPa South 4.3 km/h 13.7 km/h 84 % 0.0 mm
11:09 20.0 °C 17.0 °C 1018.8 hPa South 5.8 km/h 13.7 km/h 83 % 0.0 mm
11:14 20.1 °C 17.0 °C 1018.8 hPa SSE 5.0 km/h 13.7 km/h 81 % 0.0 mm
11:19 20.3 °C 17.0 °C 1018.8 hPa SSW 2.1 km/h 13.7 km/h 82 % 0.0 mm
11:24 20.5 °C 17.0 °C 1018.8 hPa SSE 14.8 km/h 16.3 km/h 80 % 0.0 mm
11:29 20.5 °C 17.0 °C 1018.8 hPa South 3.2 km/h 16.9 km/h 79 % 0.0 mm
11:34 20.7 °C 17.0 °C 1018.2 hPa SSE 13.0 km/h 16.9 km/h 79 % 0.0 mm
11:39 20.8 °C 17.0 °C 1018.2 hPa SSE 11.1 km/h 17.7 km/h 78 % 0.0 mm
11:44 21.0 °C 17.0 °C 1018.2 hPa South 17.7 km/h 17.7 km/h 77 % 0.0 mm
11:45 21.0 °C 17.0 °C 1018.2 hPa SW 13.0 km/h 17.7 km/h 77 % 0.0 mm
11:50 21.1 °C 17.0 °C 1018.8 hPa SSE 9.7 km/h 17.7 km/h 76 % 0.0 mm
11:55 21.2 °C 17.0 °C 1018.8 hPa SSE 17.2 km/h 17.2 km/h 76 % 0.0 mm
12:00 21.4 °C 17.0 °C 1018.8 hPa SSW 11.6 km/h 17.2 km/h 76 % 0.0 mm
12:05 21.7 °C 17.0 °C 1018.8 hPa SSW 12.6 km/h 17.2 km/h 76 % 0.0 mm
12:15 21.8 °C 17.0 °C 1018.8 hPa SSW 6.4 km/h 19.8 km/h 73 % 0.0 mm
12:20 22.0 °C 17.0 °C 1018.8 hPa SSW 9.3 km/h 19.8 km/h 74 % 0.0 mm
12:25 22.3 °C 17.0 °C 1018.8 hPa SE 6.1 km/h 16.6 km/h 72 % 0.0 mm
12:30 22.4 °C 17.0 °C 1018.2 hPa South 10.1 km/h 16.6 km/h 73 % 0.0 mm
12:35 22.5 °C 18.0 °C 1018.2 hPa South 10.5 km/h 14.8 km/h 73 % 0.0 mm
12:40 22.7 °C 17.0 °C 1018.2 hPa South 7.9 km/h 16.9 km/h 71 % 0.0 mm
12:45 23.0 °C 17.0 °C 1018.8 hPa South 5.8 km/h 16.9 km/h 70 % 0.0 mm
12:50 23.1 °C 17.0 °C 1018.8 hPa South 8.7 km/h 14.0 km/h 69 % 0.0 mm
12:55 23.6 °C 18.0 °C 1018.8 hPa SSW 9.0 km/h 14.0 km/h 70 % 0.0 mm
13:00 23.8 °C 18.0 °C 1018.8 hPa SW 5.0 km/h 16.3 km/h 68 % 0.0 mm
13:05 24.1 °C 18.0 °C 1018.8 hPa SSE 12.6 km/h 16.3 km/h 68 % 0.0 mm
13:11 24.1 °C 17.0 °C 1018.8 hPa South 13.0 km/h 16.3 km/h 65 % 0.0 mm
13:16 24.1 °C 17.0 °C 1018.8 hPa South 14.0 km/h 24.8 km/h 63 % 0.0 mm
13:21 24.4 °C 17.0 °C 1018.8 hPa South 14.0 km/h 24.8 km/h 64 % 0.0 mm
13:26 24.6 °C 17.0 °C 1018.8 hPa South 9.0 km/h 16.9 km/h 62 % 0.0 mm
13:31 24.6 °C 17.0 °C 1018.8 hPa SSE 9.3 km/h 16.9 km/h 61 % 0.0 mm
13:36 24.8 °C 17.0 °C 1018.8 hPa South 7.9 km/h 20.1 km/h 62 % 0.0 mm
13:41 25.0 °C 17.0 °C 1018.8 hPa South 13.0 km/h 20.1 km/h 60 % 0.0 mm
13:46 25.1 °C 17.0 °C 1018.2 hPa SSW 15.4 km/h 19.8 km/h 60 % 0.0 mm
13:51 25.3 °C 17.0 °C 1018.2 hPa SSW 11.6 km/h 18.0 km/h 59 % 0.0 mm
13:56 25.4 °C 16.0 °C 1018.2 hPa South 15.1 km/h 20.1 km/h 57 % 0.0 mm
14:01 25.4 °C 16.0 °C 1018.2 hPa SSW 20.9 km/h 20.9 km/h 55 % 0.0 mm
14:06 25.4 °C 16.0 °C 1018.2 hPa South 10.1 km/h 27.0 km/h 56 % 0.0 mm
14:11 25.4 °C 16.0 °C 1018.2 hPa South 13.7 km/h 27.0 km/h 55 % 0.0 mm
14:16 25.4 °C 16.0 °C 1018.2 hPa NNW 12.6 km/h 21.9 km/h 55 % 0.0 mm
14:21 25.5 °C 17.0 °C 1018.2 hPa South 14.0 km/h 21.9 km/h 57 % 0.0 mm
14:26 25.5 °C 16.0 °C 1018.2 hPa South 19.5 km/h 28.5 km/h 56 % 0.0 mm
14:31 25.7 °C 16.0 °C 1018.2 hPa South 9.7 km/h 28.5 km/h 55 % 0.0 mm
14:36 25.9 °C 17.0 °C 1018.2 hPa South 13.0 km/h 23.3 km/h 56 % 0.0 mm
14:41 25.9 °C 16.0 °C 1018.2 hPa SSW 19.5 km/h 23.3 km/h 55 % 0.0 mm
14:46 26.1 °C 17.0 °C 1018.2 hPa South 9.0 km/h 20.1 km/h 56 % 0.0 mm
14:51 26.2 °C 17.0 °C 1018.2 hPa South 12.2 km/h 20.9 km/h 55 % 0.0 mm
14:56 26.2 °C 17.0 °C 1018.2 hPa South 16.6 km/h 20.9 km/h 56 % 0.0 mm
15:02 26.1 °C 16.0 °C 1018.2 hPa SSW 9.0 km/h 19.8 km/h 54 % 0.0 mm
15:03 26.2 °C 17.0 °C 1018.2 hPa SSW 10.1 km/h 19.8 km/h 55 % 0.0 mm
15:08 26.3 °C 17.0 °C 1018.2 hPa SSW 13.0 km/h 19.8 km/h 55 % 0.0 mm
15:13 26.4 °C 16.0 °C 1018.2 hPa SSW 8.7 km/h 17.2 km/h 53 % 0.0 mm
15:18 26.3 °C 15.0 °C 1018.2 hPa SSW 15.8 km/h 19.8 km/h 50 % 0.0 mm
15:23 26.3 °C 16.0 °C 1018.2 hPa WSW 20.1 km/h 20.1 km/h 52 % 0.0 mm
15:28 26.2 °C 16.0 °C 1018.2 hPa South 21.9 km/h 23.0 km/h 52 % 0.0 mm
15:33 26.3 °C 16.0 °C 1018.2 hPa SSW 17.7 km/h 25.6 km/h 52 % 0.0 mm
15:39 26.3 °C 16.0 °C 1018.2 hPa SSW 9.0 km/h 25.6 km/h 52 % 0.0 mm
15:44 26.4 °C 16.0 °C 1018.2 hPa SW 20.1 km/h 20.9 km/h 53 % 0.0 mm
15:49 26.2 °C 16.0 °C 1018.2 hPa SW 13.7 km/h 20.1 km/h 52 % 0.0 mm
15:54 26.2 °C 16.0 °C 1018.2 hPa South 10.5 km/h 18.0 km/h 53 % 0.0 mm
15:59 26.0 °C 16.0 °C 1018.2 hPa South 16.3 km/h 16.3 km/h 52 % 0.0 mm
16:04 26.0 °C 16.0 °C 1016.8 hPa SSW 9.3 km/h 19.5 km/h 52 % 0.0 mm
16:09 26.0 °C 16.0 °C 1016.8 hPa South 10.1 km/h 19.5 km/h 53 % 0.0 mm
16:14 26.1 °C 16.0 °C 1016.8 hPa SW 10.1 km/h 19.8 km/h 54 % 0.0 mm
16:19 25.9 °C 16.0 °C 1016.8 hPa South 9.0 km/h 20.6 km/h 53 % 0.0 mm
16:24 25.8 °C 16.0 °C 1016.8 hPa SSW 8.7 km/h 20.6 km/h 56 % 0.0 mm
16:29 25.4 °C 16.0 °C 1016.8 hPa South 14.8 km/h 14.8 km/h 55 % 0.0 mm
16:34 25.2 °C 16.0 °C 1016.8 hPa SW 6.9 km/h 17.7 km/h 56 % 0.0 mm
16:39 25.2 °C 16.0 °C 1016.8 hPa SW 9.0 km/h 17.7 km/h 56 % 0.0 mm
16:44 25.1 °C 16.0 °C 1016.8 hPa SSW 9.3 km/h 16.3 km/h 56 % 0.0 mm
16:49 25.0 °C 16.0 °C 1016.8 hPa South 6.9 km/h 16.3 km/h 57 % 0.0 mm
16:54 24.8 °C 16.0 °C 1016.8 hPa South 6.4 km/h 15.4 km/h 58 % 0.0 mm
16:59 24.7 °C 16.0 °C 1016.8 hPa SSW 10.1 km/h 15.4 km/h 58 % 0.0 mm
17:04 24.5 °C 16.0 °C 1016.8 hPa South 7.6 km/h 15.1 km/h 58 % 0.0 mm
17:09 24.4 °C 16.0 °C 1016.8 hPa SSE 5.0 km/h 15.1 km/h 60 % 0.0 mm
17:14 24.2 °C 16.0 °C 1016.8 hPa South 5.5 km/h 16.3 km/h 60 % 0.0 mm
17:19 24.1 °C 16.0 °C 1016.8 hPa South 10.1 km/h 16.6 km/h 60 % 0.0 mm
17:24 24.0 °C 16.0 °C 1016.8 hPa SSW 10.5 km/h 16.6 km/h 61 % 0.0 mm
17:29 23.9 °C 16.0 °C 1016.8 hPa South 8.7 km/h 13.7 km/h 62 % 0.0 mm
17:34 23.8 °C 16.0 °C 1016.8 hPa SSW 6.4 km/h 10.5 km/h 63 % 0.0 mm
17:39 23.6 °C 16.0 °C 1016.8 hPa SW 9.3 km/h 14.0 km/h 63 % 0.0 mm
17:45 23.6 °C 17.0 °C 1016.8 hPa SSW 10.1 km/h 14.0 km/h 64 % 0.0 mm
17:50 23.6 °C 17.0 °C 1016.8 hPa SW 9.0 km/h 12.2 km/h 64 % 0.0 mm
17:55 23.5 °C 17.0 °C 1016.8 hPa SSW 10.1 km/h 12.6 km/h 64 % 0.0 mm
18:00 23.4 °C 16.0 °C 1018.2 hPa South 10.1 km/h 12.6 km/h 64 % 0.0 mm
18:05 23.3 °C 16.0 °C 1018.2 hPa Calm   10.5 km/h 64 % 0.0 mm
18:10 23.1 °C 16.0 °C 1018.2 hPa SSW 6.9 km/h 10.5 km/h 65 % 0.0 mm
18:15 22.9 °C 16.0 °C 1018.2 hPa Calm   9.0 km/h 66 % 0.0 mm
18:20 22.7 °C 16.0 °C 1018.2 hPa Calm   8.7 km/h 66 % 0.0 mm
18:25 22.6 °C 16.0 °C 1018.2 hPa South 5.8 km/h 9.0 km/h 66 % 0.0 mm
18:30 22.4 °C 16.0 °C 1018.2 hPa Calm   9.0 km/h 67 % 0.0 mm
18:31 22.3 °C 16.0 °C 1018.2 hPa SW 1.4 km/h 9.0 km/h 67 % 0.0 mm
18:36 22.2 °C 16.0 °C 1018.2 hPa SW 4.7 km/h 9.0 km/h 67 % 0.0 mm
18:41 21.9 °C 16.0 °C 1018.2 hPa South 2.6 km/h 5.0 km/h 68 % 0.0 mm
18:46 21.7 °C 16.0 °C 1018.2 hPa Calm   6.4 km/h 68 % 0.0 mm
18:51 21.5 °C 16.0 °C 1018.2 hPa SSW 5.5 km/h 8.7 km/h 68 % 0.0 mm
18:56 21.3 °C 15.0 °C 1018.2 hPa Calm   9.3 km/h 69 % 0.0 mm
19:01 21.2 °C 15.0 °C 1018.2 hPa SSW 5.0 km/h 9.3 km/h 69 % 0.0 mm
19:06 21.1 °C 15.0 °C 1018.2 hPa South 7.9 km/h 7.9 km/h 69 % 0.0 mm
19:11 21.1 °C 15.0 °C 1018.2 hPa SSE 5.8 km/h 7.9 km/h 70 % 0.0 mm
19:16 21.0 °C 15.0 °C 1018.2 hPa SW 4.0 km/h 8.7 km/h 70 % 0.0 mm
19:21 21.0 °C 15.0 °C 1018.2 hPa SSE 5.8 km/h 8.7 km/h 70 % 0.0 mm
19:26 20.9 °C 15.0 °C 1018.2 hPa SSW 5.0 km/h 8.7 km/h 70 % 0.0 mm
19:31 20.9 °C 16.0 °C 1018.8 hPa South 5.8 km/h 12.6 km/h 71 % 0.0 mm
19:36 20.9 °C 16.0 °C 1018.8 hPa Calm   12.6 km/h 71 % 0.0 mm
19:41 20.8 °C 15.0 °C 1018.8 hPa Calm   10.5 km/h 71 % 0.0 mm
19:46 20.7 °C 15.0 °C 1018.8 hPa WSW 4.3 km/h 10.5 km/h 71 % 0.0 mm
19:51 20.7 °C 15.0 °C 1018.8 hPa South 5.5 km/h 9.7 km/h 71 % 0.0 mm
19:57 20.6 °C 16.0 °C 1018.8 hPa SW 6.1 km/h 9.7 km/h 72 % 0.0 mm
20:02 20.5 °C 16.0 °C 1018.8 hPa SW 2.6 km/h 7.9 km/h 72 % 0.0 mm
20:07 20.5 °C 16.0 °C 1018.8 hPa Calm   6.1 km/h 72 % 0.0 mm
20:12 20.4 °C 15.0 °C 1018.8 hPa West 7.9 km/h 12.2 km/h 73 % 0.0 mm
20:17 20.3 °C 15.0 °C 1018.8 hPa WSW 7.2 km/h 12.2 km/h 73 % 0.0 mm
20:22 20.0 °C 15.0 °C 1018.8 hPa WSW 5.8 km/h 10.5 km/h 74 % 0.0 mm
20:27 19.7 °C 15.0 °C 1018.8 hPa WSW 9.3 km/h 10.5 km/h 75 % 0.0 mm
20:32 19.6 °C 15.0 °C 1018.8 hPa SW 11.9 km/h 13.7 km/h 76 % 0.0 mm
20:37 19.6 °C 16.0 °C 1018.8 hPa WSW 9.3 km/h 13.7 km/h 77 % 0.0 mm
20:42 19.4 °C 15.0 °C 1018.8 hPa WSW 10.5 km/h 13.7 km/h 77 % 0.0 mm
20:47 19.3 °C 15.0 °C 1018.8 hPa West 5.0 km/h 11.1 km/h 78 % 0.0 mm
20:52 19.2 °C 15.0 °C 1018.8 hPa WSW 10.1 km/h 12.6 km/h 78 % 0.0 mm
20:58 19.2 °C 16.0 °C 1018.8 hPa WSW 16.9 km/h 16.9 km/h 79 % 0.0 mm
21:03 19.3 °C 16.0 °C 1018.8 hPa WSW 17.7 km/h 20.9 km/h 79 % 0.0 mm
21:08 19.3 °C 16.0 °C 1018.8 hPa WSW 16.9 km/h 20.9 km/h 79 % 0.0 mm
21:10 19.3 °C 16.0 °C 1018.8 hPa WSW 20.6 km/h 21.2 km/h 79 % 0.0 mm
21:15 19.2 °C 16.0 °C 1018.8 hPa WSW 13.0 km/h 21.2 km/h 79 % 0.0 mm
21:20 19.1 °C 16.0 °C 1019.9 hPa WSW 15.1 km/h 18.0 km/h 80 % 0.0 mm
21:25 19.0 °C 16.0 °C 1019.9 hPa West 11.6 km/h 18.0 km/h 80 % 0.0 mm
21:30 18.8 °C 15.0 °C 1019.9 hPa WSW 9.0 km/h 16.3 km/h 80 % 0.0 mm
21:35 18.5 °C 15.0 °C 1018.2 hPa Calm   12.6 km/h 80 % 0.0 mm
21:40 18.2 °C 15.0 °C 1018.2 hPa Calm   9.7 km/h 80 % 0.0 mm
21:45 17.9 °C 15.0 °C 1018.2 hPa WSW 8.7 km/h 8.7 km/h 81 % 0.0 mm
21:50 17.7 °C 15.0 °C 1018.8 hPa WSW 4.7 km/h 9.0 km/h 82 % 0.0 mm
21:55 17.6 °C 15.0 °C 1018.8 hPa WSW 6.1 km/h 9.0 km/h 82 % 0.0 mm
22:00 17.4 °C 14.0 °C 1018.8 hPa Calm   7.9 km/h 83 % 0.0 mm
22:05 17.2 °C 14.0 °C 1018.8 hPa Calm   6.4 km/h 83 % 0.0 mm
22:10 17.1 °C 14.0 °C 1018.8 hPa Calm     84 % 0.0 mm
22:15 16.9 °C 15.0 °C 1018.8 hPa Calm     85 % 0.0 mm
22:20 16.7 °C 14.0 °C 1018.8 hPa Calm     85 % 0.0 mm
22:25 16.5 °C 14.0 °C 1018.8 hPa Calm     85 % 0.0 mm
22:30 16.3 °C 14.0 °C 1018.8 hPa Calm     86 % 0.0 mm
22:35 16.3 °C 14.0 °C 1018.8 hPa WSW 5.5 km/h 5.5 km/h 87 % 0.0 mm
22:40 16.2 °C 14.0 °C 1018.8 hPa Calm   5.5 km/h 87 % 0.0 mm
22:45 16.1 °C 14.0 °C 1019.9 hPa Calm   1.4 km/h 88 % 0.0 mm
22:50 16.0 °C 14.0 °C 1019.9 hPa Calm     88 % 0.0 mm
22:55 16.0 °C 14.0 °C 1019.9 hPa Calm     89 % 0.0 mm
23:00 16.0 °C 14.0 °C 1019.9 hPa Calm   5.5 km/h 90 % 0.0 mm
23:05 16.1 °C 14.0 °C 1019.9 hPa SW 6.1 km/h 9.7 km/h 90 % 0.0 mm
23:10 16.1 °C 14.0 °C 1019.9 hPa Calm   9.7 km/h 90 % 0.0 mm
23:15 16.1 °C 15.0 °C 1019.9 hPa Calm   10.5 km/h 91 % 0.0 mm
23:20 16.1 °C 15.0 °C 1019.9 hPa Calm   10.5 km/h 91 % 0.0 mm
23:25 16.1 °C 15.0 °C 1019.9 hPa Calm   6.4 km/h 91 % 0.0 mm
23:31 16.1 °C 15.0 °C 1020.9 hPa Calm   9.3 km/h 92 % 0.0 mm
23:36 16.1 °C 15.0 °C 1020.9 hPa SW 6.4 km/h 9.3 km/h 92 % 0.0 mm
23:41 16.1 °C 15.0 °C 1020.9 hPa WSW 6.4 km/h 9.7 km/h 92 % 0.0 mm
23:46 16.1 °C 15.0 °C 1020.9 hPa WSW 8.7 km/h 10.5 km/h 92 % 0.0 mm
23:51 16.1 °C 15.0 °C 1020.9 hPa WSW 9.3 km/h 10.8 km/h 93 % 0.0 mm
23:56 16.1 °C 15.0 °C 1020.9 hPa SW 6.1 km/h 10.8 km/h 93 % 0.0 mm
Le Gheer Warneton
Courtoisie de Weather Underground - 2.25 mb

Mise a jour : 18/12/2017 21:33:12
Généré par Cumulus 1.9.4 (1099)